iso_date,epoch_date,Year,Hour,Min,DOY,POS_DOY,Lat,Lon,BP,Ts,Ta,has_bp,has_ts,has_ta,BuoyID,Buoy_Type,Buoy_Owner,Logistics,Hemisphere
2020-03-02T06:00:00Z,1583128800,2020,6,0,62.25,62.25,-63.942,160.546,977.2,1.38,-999.0,yes,yes,no,300234066435300,BD2GI,AOML,SPIRIT_OF_ENDERBY,South
2020-03-02T07:00:02Z,1583132403,2020,7,0,62.2917,62.2917,-63.941,160.553,977.3,1.38,-999.0,yes,yes,no,300234066435300,BD2GI,AOML,SPIRIT_OF_ENDERBY,South
2020-03-02T07:59:57Z,1583135997,2020,8,0,62.3333,62.3333,-63.94,160.56,977.8,1.37,-999.0,yes,yes,no,300234066435300,BD2GI,AOML,SPIRIT_OF_ENDERBY,South
2020-03-02T09:00:00Z,1583139600,2020,9,0,62.375,62.375,-63.938,160.565,978.1,1.38,-999.0,yes,yes,no,300234066435300,BD2GI,AOML,SPIRIT_OF_ENDERBY,South
2020-03-02T10:00:02Z,1583143203,2020,10,0,62.4167,62.4167,-63.938,160.566,978.8,1.36,-999.0,yes,yes,no,300234066435300,BD2GI,AOML,SPIRIT_OF_ENDERBY,South
2020-03-02T10:59:57Z,1583146797,2020,11,0,62.4583,62.4583,-63.935,160.563,978.5,1.34,-999.0,yes,yes,no,300234066435300,BD2GI,AOML,SPIRIT_OF_ENDERBY,South
2020-03-02T12:00:00Z,1583150400,2020,12,0,62.5,62.5,-63.934,160.556,978.7,1.38,-999.0,yes,yes,no,300234066435300,BD2GI,AOML,SPIRIT_OF_ENDERBY,South
2020-03-02T13:00:02Z,1583154003,2020,13,0,62.5417,62.5417,-63.933,160.549,978.4,1.36,-999.0,yes,yes,no,300234066435300,BD2GI,AOML,SPIRIT_OF_ENDERBY,South
2020-03-02T13:59:57Z,1583157597,2020,14,0,62.5833,62.5833,-63.934,160.542,977.8,1.35,-999.0,yes,yes,no,300234066435300,BD2GI,AOML,SPIRIT_OF_ENDERBY,South
2020-03-02T15:00:00Z,1583161200,2020,15,0,62.625,62.625,-63.936,160.537,976.9,1.38,-999.0,yes,yes,no,300234066435300,BD2GI,AOML,SPIRIT_OF_ENDERBY,South
2020-03-02T16:00:02Z,1583164803,2020,16,0,62.6667,62.6667,-63.918,160.693,976.2,1.4,-999.0,yes,yes,no,300234066435300,BD2GI,AOML,SPIRIT_OF_ENDERBY,South
2020-03-02T16:59:57Z,1583168397,2020,17,0,62.7083,62.7083,-63.941,160.532,975.5,1.36,-999.0,yes,yes,no,300234066435300,BD2GI,AOML,SPIRIT_OF_ENDERBY,South
2020-03-02T18:00:00Z,1583172000,2020,18,0,62.75,62.75,-63.944,160.533,973.9,1.34,-999.0,yes,yes,no,300234066435300,BD2GI,AOML,SPIRIT_OF_ENDERBY,South
2020-03-02T19:00:02Z,1583175603,2020,19,0,62.7917,62.7917,-63.946,160.535,972.9,1.36,-999.0,yes,yes,no,300234066435300,BD2GI,AOML,SPIRIT_OF_ENDERBY,South
2020-03-02T19:59:57Z,1583179197,2020,20,0,62.8333,62.8333,-63.948,160.541,972.6,1.36,-999.0,yes,yes,no,300234066435300,BD2GI,AOML,SPIRIT_OF_ENDERBY,South
2020-03-02T21:00:00Z,1583182800,2020,21,0,62.875,62.875,-63.948,160.544,972.6,1.38,-999.0,yes,yes,no,300234066435300,BD2GI,AOML,SPIRIT_OF_ENDERBY,South
2020-03-02T22:00:02Z,1583186403,2020,22,0,62.9167,62.9167,-63.947,160.544,972.3,1.42,-999.0,yes,yes,no,300234066435300,BD2GI,AOML,SPIRIT_OF_ENDERBY,South
2020-03-02T22:59:57Z,1583189997,2020,23,0,62.9583,62.9583,-63.945,160.543,972.3,1.45,-999.0,yes,yes,no,300234066435300,BD2GI,AOML,SPIRIT_OF_ENDERBY,South
2020-03-03T00:00:00Z,1583193600,2020,0,0,63.0,63.0,-63.945,160.538,971.9,1.48,-999.0,yes,yes,no,300234066435300,BD2GI,AOML,SPIRIT_OF_ENDERBY,South
2020-03-03T01:00:02Z,1583197203,2020,1,0,63.0417,63.0417,-63.945,160.534,971.9,1.51,-999.0,yes,yes,no,300234066435300,BD2GI,AOML,SPIRIT_OF_ENDERBY,South
2020-03-03T01:59:57Z,1583200797,2020,2,0,63.0833,63.0833,-63.946,160.528,971.7,1.53,-999.0,yes,yes,no,300234066435300,BD2GI,AOML,SPIRIT_OF_ENDERBY,South
2020-03-03T03:00:00Z,1583204400,2020,3,0,63.125,63.125,-63.947,160.523,971.9,1.54,-999.0,yes,yes,no,300234066435300,BD2GI,AOML,SPIRIT_OF_ENDERBY,South
2020-03-03T04:00:02Z,1583208003,2020,4,0,63.1667,63.1667,-63.95,160.52,972.1,1.61,-999.0,yes,yes,no,300234066435300,BD2GI,AOML,SPIRIT_OF_ENDERBY,South
2020-03-03T04:59:57Z,1583211597,2020,5,0,63.2083,63.2083,-63.953,160.52,972.5,1.61,-999.0,yes,yes,no,300234066435300,BD2GI,AOML,SPIRIT_OF_ENDERBY,South
2020-03-03T06:00:00Z,1583215200,2020,6,0,63.25,63.25,-63.956,160.521,973.3,1.58,-999.0,yes,yes,no,300234066435300,BD2GI,AOML,SPIRIT_OF_ENDERBY,South
2020-03-03T07:00:02Z,1583218803,2020,7,0,63.2917,63.2917,-63.957,160.526,974.8,1.45,-999.0,yes,yes,no,300234066435300,BD2GI,AOML,SPIRIT_OF_ENDERBY,South
2020-03-03T07:59:57Z,1583222397,2020,8,0,63.3333,63.3333,-63.954,160.536,976.5,1.38,-999.0,yes,yes,no,300234066435300,BD2GI,AOML,SPIRIT_OF_ENDERBY,South
2020-03-03T09:00:00Z,1583226000,2020,9,0,63.375,63.375,-63.949,160.542,978.5,1.35,-999.0,yes,yes,no,300234066435300,BD2GI,AOML,SPIRIT_OF_ENDERBY,South
2020-03-03T10:00:02Z,1583229603,2020,10,0,63.4167,63.4167,-63.941,160.545,980.0,1.34,-999.0,yes,yes,no,300234066435300,BD2GI,AOML,SPIRIT_OF_ENDERBY,South
2020-03-03T10:59:57Z,1583233197,2020,11,0,63.4583,63.4583,-63.932,160.543,981.6,1.31,-999.0,yes,yes,no,300234066435300,BD2GI,AOML,SPIRIT_OF_ENDERBY,South
2020-03-03T12:00:00Z,1583236800,2020,12,0,63.5,63.5,-63.923,160.533,982.6,1.31,-999.0,yes,yes,no,300234066435300,BD2GI,AOML,SPIRIT_OF_ENDERBY,South
2020-03-03T13:00:02Z,1583240403,2020,13,0,63.5417,63.5417,-63.916,160.518,983.1,1.29,-999.0,yes,yes,no,300234066435300,BD2GI,AOML,SPIRIT_OF_ENDERBY,South
2020-03-03T13:59:57Z,1583243997,2020,14,0,63.5833,63.5833,-63.913,160.502,983.8,1.27,-999.0,yes,yes,no,300234066435300,BD2GI,AOML,SPIRIT_OF_ENDERBY,South
2020-03-03T15:00:00Z,1583247600,2020,15,0,63.625,63.625,-63.913,160.488,984.5,1.27,-999.0,yes,yes,no,300234066435300,BD2GI,AOML,SPIRIT_OF_ENDERBY,South
2020-03-03T16:00:02Z,1583251203,2020,16,0,63.6667,63.6667,-63.916,160.475,985.4,1.26,-999.0,yes,yes,no,300234066435300,BD2GI,AOML,SPIRIT_OF_ENDERBY,South
2020-03-03T16:59:57Z,1583254797,2020,17,0,63.7083,63.7083,-63.922,160.469,985.8,1.25,-999.0,yes,yes,no,300234066435300,BD2GI,AOML,SPIRIT_OF_ENDERBY,South
2020-03-03T18:00:00Z,1583258400,2020,18,0,63.75,63.75,-63.928,160.469,986.1,1.25,-999.0,yes,yes,no,300234066435300,BD2GI,AOML,SPIRIT_OF_ENDERBY,South
2020-03-03T19:00:02Z,1583262003,2020,19,0,63.7917,63.7917,-63.934,160.481,986.3,1.24,-999.0,yes,yes,no,300234066435300,BD2GI,AOML,SPIRIT_OF_ENDERBY,South
2020-03-03T19:59:57Z,1583265597,2020,20,0,63.8333,63.8333,-63.937,160.495,986.5,1.25,-999.0,yes,yes,no,300234066435300,BD2GI,AOML,SPIRIT_OF_ENDERBY,South
2020-03-03T21:00:00Z,1583269200,2020,21,0,63.875,63.875,-63.937,160.513,986.3,1.26,-999.0,yes,yes,no,300234066435300,BD2GI,AOML,SPIRIT_OF_ENDERBY,South
2020-03-03T22:00:02Z,1583272803,2020,22,0,63.9167,63.9167,-63.934,160.529,986.1,1.27,-999.0,yes,yes,no,300234066435300,BD2GI,AOML,SPIRIT_OF_ENDERBY,South
2020-03-03T22:59:57Z,1583276397,2020,23,0,63.9583,63.9583,-63.927,160.54,985.7,1.28,-999.0,yes,yes,no,300234066435300,BD2GI,AOML,SPIRIT_OF_ENDERBY,South
2020-03-04T00:00:00Z,1583280000,2020,0,0,64.0,64.0,-63.92,160.543,985.0,1.28,-999.0,yes,yes,no,300234066435300,BD2GI,AOML,SPIRIT_OF_ENDERBY,South
2020-03-04T01:00:02Z,1583283603,2020,1,0,64.0417,64.0417,-63.913,160.538,984.2,1.28,-999.0,yes,yes,no,300234066435300,BD2GI,AOML,SPIRIT_OF_ENDERBY,South
2020-03-04T01:59:57Z,1583287197,2020,2,0,64.0833,64.0833,-63.908,160.527,983.0,1.28,-999.0,yes,yes,no,300234066435300,BD2GI,AOML,SPIRIT_OF_ENDERBY,South
2020-03-04T03:00:00Z,1583290800,2020,3,0,64.125,64.125,-63.907,160.513,982.2,1.29,-999.0,yes,yes,no,300234066435300,BD2GI,AOML,SPIRIT_OF_ENDERBY,South
2020-03-04T04:00:02Z,1583294403,2020,4,0,64.1667,64.1667,-63.908,160.5,981.0,1.3,-999.0,yes,yes,no,300234066435300,BD2GI,AOML,SPIRIT_OF_ENDERBY,South
2020-03-04T04:59:57Z,1583297997,2020,5,0,64.2083,64.2083,-63.911,160.487,979.6,1.3,-999.0,yes,yes,no,300234066435300,BD2GI,AOML,SPIRIT_OF_ENDERBY,South
2020-03-04T06:00:00Z,1583301600,2020,6,0,64.25,64.25,-63.918,160.478,978.8,1.31,-999.0,yes,yes,no,300234066435300,BD2GI,AOML,SPIRIT_OF_ENDERBY,South
2020-03-04T07:00:02Z,1583305203,2020,7,0,64.2917,64.2917,-63.925,160.475,978.7,1.31,-999.0,yes,yes,no,300234066435300,BD2GI,AOML,SPIRIT_OF_ENDERBY,South
2020-03-04T07:59:57Z,1583308797,2020,8,0,64.3333,64.3333,-63.932,160.481,978.6,1.31,-999.0,yes,yes,no,300234066435300,BD2GI,AOML,SPIRIT_OF_ENDERBY,South
2020-03-04T09:00:00Z,1583312400,2020,9,0,64.375,64.375,-63.937,160.498,979.2,1.32,-999.0,yes,yes,no,300234066435300,BD2GI,AOML,SPIRIT_OF_ENDERBY,South
2020-03-04T10:00:02Z,1583316003,2020,10,0,64.4167,64.4167,-63.937,160.52,979.4,1.31,-999.0,yes,yes,no,300234066435300,BD2GI,AOML,SPIRIT_OF_ENDERBY,South
2020-03-04T10:59:57Z,1583319597,2020,11,0,64.4583,64.4583,-63.933,160.538,979.3,1.31,-999.0,yes,yes,no,300234066435300,BD2GI,AOML,SPIRIT_OF_ENDERBY,South
2020-03-04T12:00:00Z,1583323200,2020,12,0,64.5,64.5,-63.925,160.551,979.2,1.31,-999.0,yes,yes,no,300234066435300,BD2GI,AOML,SPIRIT_OF_ENDERBY,South
2020-03-04T13:00:02Z,1583326803,2020,13,0,64.5417,64.5417,-63.915,160.556,978.7,1.29,-999.0,yes,yes,no,300234066435300,BD2GI,AOML,SPIRIT_OF_ENDERBY,South
2020-03-04T13:59:57Z,1583330397,2020,14,0,64.5833,64.5833,-63.907,160.551,978.9,1.25,-999.0,yes,yes,no,300234066435300,BD2GI,AOML,SPIRIT_OF_ENDERBY,South
2020-03-04T15:00:00Z,1583334000,2020,15,0,64.625,64.625,-63.9,160.539,978.2,1.24,-999.0,yes,yes,no,300234066435300,BD2GI,AOML,SPIRIT_OF_ENDERBY,South
2020-03-04T16:00:02Z,1583337603,2020,16,0,64.6667,64.6667,-63.896,160.523,977.9,1.25,-999.0,yes,yes,no,300234066435300,BD2GI,AOML,SPIRIT_OF_ENDERBY,South
2020-03-04T16:59:57Z,1583341197,2020,17,0,64.7083,64.7083,-63.896,160.507,978.3,1.24,-999.0,yes,yes,no,300234066435300,BD2GI,AOML,SPIRIT_OF_ENDERBY,South
2020-03-04T18:00:00Z,1583344800,2020,18,0,64.75,64.75,-63.898,160.495,978.0,1.25,-999.0,yes,yes,no,300234066435300,BD2GI,AOML,SPIRIT_OF_ENDERBY,South
2020-03-04T19:00:02Z,1583348403,2020,19,0,64.7917,64.7917,-63.903,160.488,978.2,1.26,-999.0,yes,yes,no,300234066435300,BD2GI,AOML,SPIRIT_OF_ENDERBY,South
2020-03-04T19:59:57Z,1583351997,2020,20,0,64.8333,64.8333,-63.909,160.487,978.9,1.26,-999.0,yes,yes,no,300234066435300,BD2GI,AOML,SPIRIT_OF_ENDERBY,South
2020-03-04T21:00:00Z,1583355600,2020,21,0,64.875,64.875,-63.914,160.494,979.5,1.27,-999.0,yes,yes,no,300234066435300,BD2GI,AOML,SPIRIT_OF_ENDERBY,South
2020-03-04T22:00:02Z,1583359203,2020,22,0,64.9167,64.9167,-63.918,160.507,980.2,1.22,-999.0,yes,yes,no,300234066435300,BD2GI,AOML,SPIRIT_OF_ENDERBY,South
2020-03-04T22:59:57Z,1583362797,2020,23,0,64.9583,64.9583,-63.919,160.526,981.7,1.17,-999.0,yes,yes,no,300234066435300,BD2GI,AOML,SPIRIT_OF_ENDERBY,South
2020-03-05T00:00:00Z,1583366400,2020,0,0,65.0,65.0,-63.914,160.543,983.6,1.19,-999.0,yes,yes,no,300234066435300,BD2GI,AOML,SPIRIT_OF_ENDERBY,South
2020-03-05T01:00:02Z,1583370003,2020,1,0,65.0417,65.0417,-63.905,160.555,984.8,1.16,-999.0,yes,yes,no,300234066435300,BD2GI,AOML,SPIRIT_OF_ENDERBY,South
2020-03-05T01:59:57Z,1583373597,2020,2,0,65.0833,65.0833,-63.893,160.557,986.3,1.12,-999.0,yes,yes,no,300234066435300,BD2GI,AOML,SPIRIT_OF_ENDERBY,South
2020-03-05T03:00:00Z,1583377200,2020,3,0,65.125,65.125,-63.881,160.554,987.8,1.11,-999.0,yes,yes,no,300234066435300,BD2GI,AOML,SPIRIT_OF_ENDERBY,South
2020-03-05T04:00:02Z,1583380803,2020,4,0,65.1667,65.1667,-63.871,160.542,989.4,1.13,-999.0,yes,yes,no,300234066435300,BD2GI,AOML,SPIRIT_OF_ENDERBY,South
2020-03-05T04:59:57Z,1583384397,2020,5,0,65.2083,65.2083,-63.864,160.522,989.5,1.13,-999.0,yes,yes,no,300234066435300,BD2GI,AOML,SPIRIT_OF_ENDERBY,South
2020-03-05T06:00:00Z,1583388000,2020,6,0,65.25,65.25,-63.86,160.502,991.0,1.14,-999.0,yes,yes,no,300234066435300,BD2GI,AOML,SPIRIT_OF_ENDERBY,South
2020-03-05T07:00:02Z,1583391603,2020,7,0,65.2917,65.2917,-63.86,160.484,992.0,1.11,-999.0,yes,yes,no,300234066435300,BD2GI,AOML,SPIRIT_OF_ENDERBY,South
2020-03-05T07:59:57Z,1583395197,2020,8,0,65.3333,65.3333,-63.862,160.474,993.4,1.08,-999.0,yes,yes,no,300234066435300,BD2GI,AOML,SPIRIT_OF_ENDERBY,South
2020-03-05T09:00:00Z,1583398800,2020,9,0,65.375,65.375,-63.865,160.471,994.8,1.07,-999.0,yes,yes,no,300234066435300,BD2GI,AOML,SPIRIT_OF_ENDERBY,South
2020-03-05T10:00:02Z,1583402403,2020,10,0,65.4167,65.4167,-63.867,160.475,996.4,1.06,-999.0,yes,yes,no,300234066435300,BD2GI,AOML,SPIRIT_OF_ENDERBY,South
2020-03-05T10:59:57Z,1583405997,2020,11,0,65.4583,65.4583,-63.869,160.484,996.4,1.05,-999.0,yes,yes,no,300234066435300,BD2GI,AOML,SPIRIT_OF_ENDERBY,South
2020-03-05T12:00:00Z,1583409600,2020,12,0,65.5,65.5,-63.868,160.493,996.9,1.04,-999.0,yes,yes,no,300234066435300,BD2GI,AOML,SPIRIT_OF_ENDERBY,South
2020-03-05T13:00:02Z,1583413203,2020,13,0,65.5417,65.5417,-63.866,160.502,997.0,1.04,-999.0,yes,yes,no,300234066435300,BD2GI,AOML,SPIRIT_OF_ENDERBY,South
2020-03-05T13:59:57Z,1583416797,2020,14,0,65.5833,65.5833,-63.862,160.51,996.8,1.03,-999.0,yes,yes,no,300234066435300,BD2GI,AOML,SPIRIT_OF_ENDERBY,South
2020-03-05T15:00:00Z,1583420400,2020,15,0,65.625,65.625,-63.857,160.513,997.2,1.02,-999.0,yes,yes,no,300234066435300,BD2GI,AOML,SPIRIT_OF_ENDERBY,South
2020-03-05T16:00:02Z,1583424003,2020,16,0,65.6667,65.6667,-63.851,160.511,997.3,1.01,-999.0,yes,yes,no,300234066435300,BD2GI,AOML,SPIRIT_OF_ENDERBY,South
2020-03-05T16:59:57Z,1583427597,2020,17,0,65.7083,65.7083,-63.847,160.505,997.1,1.01,-999.0,yes,yes,no,300234066435300,BD2GI,AOML,SPIRIT_OF_ENDERBY,South
2020-03-05T18:00:00Z,1583431200,2020,18,0,65.75,65.75,-63.845,160.496,996.8,1.01,-999.0,yes,yes,no,300234066435300,BD2GI,AOML,SPIRIT_OF_ENDERBY,South
2020-03-05T19:00:02Z,1583434803,2020,19,0,65.7917,65.7917,-63.844,160.487,996.6,1.01,-999.0,yes,yes,no,300234066435300,BD2GI,AOML,SPIRIT_OF_ENDERBY,South
2020-03-05T19:59:57Z,1583438397,2020,20,0,65.8333,65.8333,-63.845,160.48,996.5,1.01,-999.0,yes,yes,no,300234066435300,BD2GI,AOML,SPIRIT_OF_ENDERBY,South
2020-03-05T21:00:00Z,1583442000,2020,21,0,65.875,65.875,-63.848,160.475,996.4,1.01,-999.0,yes,yes,no,300234066435300,BD2GI,AOML,SPIRIT_OF_ENDERBY,South
2020-03-05T22:00:02Z,1583445603,2020,22,0,65.9167,65.9167,-63.852,160.473,996.6,1.02,-999.0,yes,yes,no,300234066435300,BD2GI,AOML,SPIRIT_OF_ENDERBY,South
2020-03-05T22:59:57Z,1583449197,2020,23,0,65.9583,65.9583,-63.855,160.475,996.2,1.04,-999.0,yes,yes,no,300234066435300,BD2GI,AOML,SPIRIT_OF_ENDERBY,South
2020-03-06T00:00:00Z,1583452800,2020,0,0,66.0,66.0,-63.858,160.481,995.7,1.04,-999.0,yes,yes,no,300234066435300,BD2GI,AOML,SPIRIT_OF_ENDERBY,South
2020-03-06T01:00:02Z,1583456403,2020,1,0,66.0417,66.0417,-63.859,160.488,995.3,1.05,-999.0,yes,yes,no,300234066435300,BD2GI,AOML,SPIRIT_OF_ENDERBY,South
2020-03-06T01:59:57Z,1583459997,2020,2,0,66.0833,66.0833,-63.861,160.499,994.8,1.05,-999.0,yes,yes,no,300234066435300,BD2GI,AOML,SPIRIT_OF_ENDERBY,South
2020-03-06T03:00:00Z,1583463600,2020,3,0,66.125,66.125,-63.86,160.51,994.7,1.05,-999.0,yes,yes,no,300234066435300,BD2GI,AOML,SPIRIT_OF_ENDERBY,South
2020-03-06T04:00:02Z,1583467203,2020,4,0,66.1667,66.1667,-63.858,160.521,994.3,1.05,-999.0,yes,yes,no,300234066435300,BD2GI,AOML,SPIRIT_OF_ENDERBY,South
2020-03-06T04:59:57Z,1583470797,2020,5,0,66.2083,66.2083,-63.853,160.528,994.2,1.05,-999.0,yes,yes,no,300234066435300,BD2GI,AOML,SPIRIT_OF_ENDERBY,South
2020-03-06T06:00:00Z,1583474400,2020,6,0,66.25,66.25,-63.849,160.528,993.5,1.06,-999.0,yes,yes,no,300234066435300,BD2GI,AOML,SPIRIT_OF_ENDERBY,South
2020-03-06T07:00:02Z,1583478003,2020,7,0,66.2917,66.2917,-63.844,160.524,992.9,1.05,-999.0,yes,yes,no,300234066435300,BD2GI,AOML,SPIRIT_OF_ENDERBY,South
2020-03-06T07:59:57Z,1583481597,2020,8,0,66.3333,66.3333,-63.84,160.517,992.4,1.05,-999.0,yes,yes,no,300234066435300,BD2GI,AOML,SPIRIT_OF_ENDERBY,South
2020-03-06T09:00:00Z,1583485200,2020,9,0,66.375,66.375,-63.838,160.505,992.2,1.04,-999.0,yes,yes,no,300234066435300,BD2GI,AOML,SPIRIT_OF_ENDERBY,South
2020-03-06T10:00:02Z,1583488803,2020,10,0,66.4167,66.4167,-63.838,160.493,991.6,1.04,-999.0,yes,yes,no,300234066435300,BD2GI,AOML,SPIRIT_OF_ENDERBY,South
2020-03-06T10:59:57Z,1583492397,2020,11,0,66.4583,66.4583,-63.84,160.483,991.2,1.03,-999.0,yes,yes,no,300234066435300,BD2GI,AOML,SPIRIT_OF_ENDERBY,South
2020-03-06T12:00:00Z,1583496000,2020,12,0,66.5,66.5,-63.843,160.476,990.5,1.03,-999.0,yes,yes,no,300234066435300,BD2GI,AOML,SPIRIT_OF_ENDERBY,South
2020-03-06T13:00:02Z,1583499603,2020,13,0,66.5417,66.5417,-63.847,160.475,989.6,1.03,-999.0,yes,yes,no,300234066435300,BD2GI,AOML,SPIRIT_OF_ENDERBY,South
2020-03-06T13:59:57Z,1583503197,2020,14,0,66.5833,66.5833,-63.85,160.479,989.1,1.03,-999.0,yes,yes,no,300234066435300,BD2GI,AOML,SPIRIT_OF_ENDERBY,South
2020-03-06T15:00:00Z,1583506800,2020,15,0,66.625,66.625,-63.853,160.486,987.8,1.02,-999.0,yes,yes,no,300234066435300,BD2GI,AOML,SPIRIT_OF_ENDERBY,South
2020-03-06T16:00:02Z,1583510403,2020,16,0,66.6667,66.6667,-63.853,160.498,987.6,1.01,-999.0,yes,yes,no,300234066435300,BD2GI,AOML,SPIRIT_OF_ENDERBY,South
2020-03-06T16:59:57Z,1583513997,2020,17,0,66.7083,66.7083,-63.851,160.51,987.1,1.01,-999.0,yes,yes,no,300234066435300,BD2GI,AOML,SPIRIT_OF_ENDERBY,South
2020-03-06T18:00:00Z,1583517600,2020,18,0,66.75,66.75,-63.846,160.516,986.7,1.0,-999.0,yes,yes,no,300234066435300,BD2GI,AOML,SPIRIT_OF_ENDERBY,South
2020-03-06T19:00:02Z,1583521203,2020,19,0,66.7917,66.7917,-63.841,160.519,986.7,0.99,-999.0,yes,yes,no,300234066435300,BD2GI,AOML,SPIRIT_OF_ENDERBY,South
2020-03-06T19:59:57Z,1583524797,2020,20,0,66.8333,66.8333,-63.835,160.518,986.0,0.98,-999.0,yes,yes,no,300234066435300,BD2GI,AOML,SPIRIT_OF_ENDERBY,South
2020-03-06T21:00:00Z,1583528400,2020,21,0,66.875,66.875,-63.83,160.514,986.1,0.98,-999.0,yes,yes,no,300234066435300,BD2GI,AOML,SPIRIT_OF_ENDERBY,South
2020-03-06T22:00:02Z,1583532003,2020,22,0,66.9167,66.9167,-63.824,160.506,988.0,0.97,-999.0,yes,yes,no,300234066435300,BD2GI,AOML,SPIRIT_OF_ENDERBY,South
2020-03-06T22:59:57Z,1583535597,2020,23,0,66.9583,66.9583,-63.819,160.494,988.7,0.99,-999.0,yes,yes,no,300234066435300,BD2GI,AOML,SPIRIT_OF_ENDERBY,South
2020-03-07T00:00:00Z,1583539200,2020,0,0,67.0,67.0,-63.816,160.481,989.2,1.01,-999.0,yes,yes,no,300234066435300,BD2GI,AOML,SPIRIT_OF_ENDERBY,South
2020-03-07T01:00:02Z,1583542803,2020,1,0,67.0417,67.0417,-63.816,160.47,988.6,1.02,-999.0,yes,yes,no,300234066435300,BD2GI,AOML,SPIRIT_OF_ENDERBY,South
2020-03-07T01:59:57Z,1583546397,2020,2,0,67.0833,67.0833,-63.818,160.46,988.0,1.03,-999.0,yes,yes,no,300234066435300,BD2GI,AOML,SPIRIT_OF_ENDERBY,South
2020-03-07T03:00:00Z,1583550000,2020,3,0,67.125,67.125,-63.821,160.456,986.8,1.03,-999.0,yes,yes,no,300234066435300,BD2GI,AOML,SPIRIT_OF_ENDERBY,South
2020-03-07T04:00:02Z,1583553603,2020,4,0,67.1667,67.1667,-63.826,160.457,985.6,1.03,-999.0,yes,yes,no,300234066435300,BD2GI,AOML,SPIRIT_OF_ENDERBY,South
2020-03-07T04:59:57Z,1583557197,2020,5,0,67.2083,67.2083,-63.83,160.464,986.1,1.02,-999.0,yes,yes,no,300234066435300,BD2GI,AOML,SPIRIT_OF_ENDERBY,South
2020-03-07T06:00:00Z,1583560800,2020,6,0,67.25,67.25,-63.829,160.479,985.6,1.02,-999.0,yes,yes,no,300234066435300,BD2GI,AOML,SPIRIT_OF_ENDERBY,South
2020-03-07T07:00:02Z,1583564403,2020,7,0,67.2917,67.2917,-63.826,160.496,985.0,1.02,-999.0,yes,yes,no,300234066435300,BD2GI,AOML,SPIRIT_OF_ENDERBY,South
2020-03-07T07:59:57Z,1583567997,2020,8,0,67.3333,67.3333,-63.819,160.511,984.9,1.03,-999.0,yes,yes,no,300234066435300,BD2GI,AOML,SPIRIT_OF_ENDERBY,South
2020-03-07T09:00:00Z,1583571600,2020,9,0,67.375,67.375,-63.81,160.52,984.0,1.05,-999.0,yes,yes,no,300234066435300,BD2GI,AOML,SPIRIT_OF_ENDERBY,South
2020-03-07T10:00:02Z,1583575203,2020,10,0,67.4167,67.4167,-63.799,160.527,984.5,1.05,-999.0,yes,yes,no,300234066435300,BD2GI,AOML,SPIRIT_OF_ENDERBY,South
2020-03-07T10:59:57Z,1583578797,2020,11,0,67.4583,67.4583,-63.79,160.525,984.3,1.05,-999.0,yes,yes,no,300234066435300,BD2GI,AOML,SPIRIT_OF_ENDERBY,South
2020-03-07T12:00:00Z,1583582400,2020,12,0,67.5,67.5,-63.78,160.519,984.5,1.05,-999.0,yes,yes,no,300234066435300,BD2GI,AOML,SPIRIT_OF_ENDERBY,South
2020-03-07T13:00:02Z,1583586003,2020,13,0,67.5417,67.5417,-63.772,160.508,985.1,1.03,-999.0,yes,yes,no,300234066435300,BD2GI,AOML,SPIRIT_OF_ENDERBY,South
2020-03-07T13:59:57Z,1583589597,2020,14,0,67.5833,67.5833,-63.765,160.495,986.9,1.03,-999.0,yes,yes,no,300234066435300,BD2GI,AOML,SPIRIT_OF_ENDERBY,South
2020-03-07T15:00:00Z,1583593200,2020,15,0,67.625,67.625,-63.761,160.482,988.3,1.02,-999.0,yes,yes,no,300234066435300,BD2GI,AOML,SPIRIT_OF_ENDERBY,South
2020-03-07T16:00:02Z,1583596803,2020,16,0,67.6667,67.6667,-63.759,160.471,991.0,1.0,-999.0,yes,yes,no,300234066435300,BD2GI,AOML,SPIRIT_OF_ENDERBY,South
2020-03-07T16:59:57Z,1583600397,2020,17,0,67.7083,67.7083,-63.759,160.464,992.3,1.01,-999.0,yes,yes,no,300234066435300,BD2GI,AOML,SPIRIT_OF_ENDERBY,South
2020-03-07T18:00:00Z,1583604000,2020,18,0,67.75,67.75,-63.759,160.46,993.1,1.0,-999.0,yes,yes,no,300234066435300,BD2GI,AOML,SPIRIT_OF_ENDERBY,South
2020-03-07T19:00:02Z,1583607603,2020,19,0,67.7917,67.7917,-63.761,160.46,994.1,1.0,-999.0,yes,yes,no,300234066435300,BD2GI,AOML,SPIRIT_OF_ENDERBY,South
2020-03-07T19:59:57Z,1583611197,2020,20,0,67.8333,67.8333,-63.761,160.462,994.0,1.0,-999.0,yes,yes,no,300234066435300,BD2GI,AOML,SPIRIT_OF_ENDERBY,South
2020-03-07T21:00:00Z,1583614800,2020,21,0,67.875,67.875,-63.76,160.47,995.3,1.01,-999.0,yes,yes,no,300234066435300,BD2GI,AOML,SPIRIT_OF_ENDERBY,South
2020-03-07T22:00:02Z,1583618403,2020,22,0,67.9167,67.9167,-63.758,160.478,995.9,1.01,-999.0,yes,yes,no,300234066435300,BD2GI,AOML,SPIRIT_OF_ENDERBY,South
2020-03-07T22:59:57Z,1583621997,2020,23,0,67.9583,67.9583,-63.754,160.485,995.5,1.02,-999.0,yes,yes,no,300234066435300,BD2GI,AOML,SPIRIT_OF_ENDERBY,South
2020-03-08T00:00:00Z,1583625600,2020,0,0,68.0,68.0,-63.749,160.488,994.8,1.02,-999.0,yes,yes,no,300234066435300,BD2GI,AOML,SPIRIT_OF_ENDERBY,South
2020-03-08T01:00:02Z,1583629203,2020,1,0,68.0417,68.0417,-63.745,160.486,993.9,1.02,-999.0,yes,yes,no,300234066435300,BD2GI,AOML,SPIRIT_OF_ENDERBY,South
2020-03-08T01:59:57Z,1583632797,2020,2,0,68.0833,68.0833,-63.742,160.482,992.2,1.02,-999.0,yes,yes,no,300234066435300,BD2GI,AOML,SPIRIT_OF_ENDERBY,South
2020-03-08T03:00:00Z,1583636400,2020,3,0,68.125,68.125,-63.74,160.476,991.2,1.03,-999.0,yes,yes,no,300234066435300,BD2GI,AOML,SPIRIT_OF_ENDERBY,South
2020-03-08T04:00:02Z,1583640003,2020,4,0,68.1667,68.1667,-63.74,160.472,990.6,1.04,-999.0,yes,yes,no,300234066435300,BD2GI,AOML,SPIRIT_OF_ENDERBY,South
2020-03-08T04:59:57Z,1583643597,2020,5,0,68.2083,68.2083,-63.741,160.47,989.6,1.04,-999.0,yes,yes,no,300234066435300,BD2GI,AOML,SPIRIT_OF_ENDERBY,South
2020-03-08T06:00:00Z,1583647200,2020,6,0,68.25,68.25,-63.744,160.472,989.2,1.04,-999.0,yes,yes,no,300234066435300,BD2GI,AOML,SPIRIT_OF_ENDERBY,South
2020-03-08T07:00:02Z,1583650803,2020,7,0,68.2917,68.2917,-63.746,160.478,988.9,1.04,-999.0,yes,yes,no,300234066435300,BD2GI,AOML,SPIRIT_OF_ENDERBY,South
2020-03-08T07:59:57Z,1583654397,2020,8,0,68.3333,68.3333,-63.746,160.488,988.8,1.05,-999.0,yes,yes,no,300234066435300,BD2GI,AOML,SPIRIT_OF_ENDERBY,South
2020-03-08T09:00:00Z,1583658000,2020,9,0,68.375,68.375,-63.744,160.498,988.5,1.05,-999.0,yes,yes,no,300234066435300,BD2GI,AOML,SPIRIT_OF_ENDERBY,South
2020-03-08T10:00:02Z,1583661603,2020,10,0,68.4167,68.4167,-63.741,160.509,988.2,1.05,-999.0,yes,yes,no,300234066435300,BD2GI,AOML,SPIRIT_OF_ENDERBY,South
2020-03-08T10:59:57Z,1583665197,2020,11,0,68.4583,68.4583,-63.736,160.517,987.8,1.06,-999.0,yes,yes,no,300234066435300,BD2GI,AOML,SPIRIT_OF_ENDERBY,South
2020-03-08T12:00:00Z,1583668800,2020,12,0,68.5,68.5,-63.731,160.523,987.1,1.06,-999.0,yes,yes,no,300234066435300,BD2GI,AOML,SPIRIT_OF_ENDERBY,South
2020-03-08T13:00:02Z,1583672403,2020,13,0,68.5417,68.5417,-63.725,160.525,986.1,1.06,-999.0,yes,yes,no,300234066435300,BD2GI,AOML,SPIRIT_OF_ENDERBY,South
2020-03-08T13:59:57Z,1583675997,2020,14,0,68.5833,68.5833,-63.718,160.525,985.8,1.06,-999.0,yes,yes,no,300234066435300,BD2GI,AOML,SPIRIT_OF_ENDERBY,South
2020-03-08T15:00:00Z,1583679600,2020,15,0,68.625,68.625,-63.711,160.523,985.3,1.06,-999.0,yes,yes,no,300234066435300,BD2GI,AOML,SPIRIT_OF_ENDERBY,South
2020-03-08T16:00:02Z,1583683203,2020,16,0,68.6667,68.6667,-63.707,160.516,984.6,1.06,-999.0,yes,yes,no,300234066435300,BD2GI,AOML,SPIRIT_OF_ENDERBY,South
2020-03-08T16:59:57Z,1583686797,2020,17,0,68.7083,68.7083,-63.706,160.508,983.8,1.07,-999.0,yes,yes,no,300234066435300,BD2GI,AOML,SPIRIT_OF_ENDERBY,South